MET'MAP v2.0
soon released !

Expected late october,
this new version will be
more efficient, smarter,
and hosted on a brand new
server x3 powerfull...
...and still free !


Not compatible ?
Try the mobile version !

LOG IN : | Subscribe | Disclaimer | Who is Orbifly ? |
ICAO code :

TAF - LFBR Muret l'Herm - 16 Feb 2020 19:33 UTC
Data Sources :     NOAA   


- Airport Elevation : 622 ft
- No reported NOTAMs.


LFBR - Muret l'Herm

Latest METAR recorded : 0000/00/00 L :16 TAF LELL 161400Z 1615/1715 26007KT 9999 SCT020 TX22/1713Z TN08/1707Z PROB40 TEMPO 1618/1710 2000 BR BKN010 PROB30 TEMPO 1621/1708 0200 FG VV002
NO TAF
ATIS : +33 5 61 51 22 74


MET'MAP, your aeronautical weather chart ! - Copyright ORBIFLY December 2007

Programming & Development : Alexandra Zaïnal
Co-Developer : Marc-Olivier Méhu
Technical & hardware support : Manuel Goepfert
Concept & Financing : Baudouin d'Aumeries